This is the latest recevied weather packets stored in our database for station/object K7YVO. If no packets are shown the sender has not sent any weather packets the latest 10 day(s).
| Time | Temp. | Humidity | Pressure | Rain* | Wind** | Luminosity | Snow |
|---|---|---|---|---|---|---|---|
| 1777933751 | 21.67° C | 60% | 1014.1 hPa | 0 mm | - | 610 W/m² | - |
| 1777933448 | 21.67° C | 59% | 1014 hPa | 0 mm | - | 621 W/m² | - |
| 1777933146 | 22.22° C | 58% | 1013.8 hPa | 0 mm | - | 629 W/m² | - |
| 1777932842 | 21.67° C | 59% | 1014.1 hPa | 0 mm | - | 637 W/m² | - |
| 1777932540 | 21.67° C | 59% | 1014.2 hPa | 0 mm | - | 643 W/m² | - |
| 1777932236 | 22.22° C | 60% | 1014.4 hPa | 0 mm | - | 653 W/m² | - |
| 1777931933 | 21.67° C | 59% | 1014.5 hPa | 0 mm | - | 661 W/m² | - |
| 1777931630 | 21.11° C | 62% | 1014.3 hPa | 0 mm | - | 671 W/m² | - |
| 1777931326 | 21.11° C | 60% | 1014.4 hPa | 0 mm | - | 675 W/m² | - |
| 1777931023 | 21.11° C | 61% | 1014.6 hPa | 0 mm | - | 684 W/m² | - |
| 1777930720 | 20° C | 64% | 1014.6 hPa | 0 mm | - | 687 W/m² | - |
| 1777930415 | 20° C | 64% | 1014.6 hPa | 0 mm | - | 689 W/m² | - |
| 1777930113 | 21.11° C | 62% | 1014.6 hPa | 0 mm | - | 699 W/m² | - |
| 1777929809 | 20° C | 65% | 1014.8 hPa | 0 mm | - | 704 W/m² | - |
| 1777929507 | 19.44° C | 64% | 1014.5 hPa | 0 mm | - | 711 W/m² | - |
| 1777929208 | 19.44° C | 67% | 1014.9 hPa | 0 mm | - | 718 W/m² | - |
| 1777928906 | 19.44° C | 65% | 1014.9 hPa | 0 mm | - | 723 W/m² | - |
| 1777928602 | 18.89° C | 66% | 1014.8 hPa | 0 mm | - | 724 W/m² | - |
| 1777928300 | 18.33° C | 69% | 1015.1 hPa | 0 mm | - | 730 W/m² | - |
| 1777927997 | 18.33° C | 70% | 1015.1 hPa | 0 mm | - | 730 W/m² | - |
| 1777927695 | 17.78° C | 71% | 1015.1 hPa | 0 mm | - | 735 W/m² | - |
| 1777927393 | 17.78° C | 71% | 1015 hPa | 0 mm | - | 741 W/m² | - |
| 1777927093 | 18.33° C | 69% | 1015.2 hPa | 0 mm | - | 741 W/m² | - |
| 1777926790 | 18.33° C | 71% | 1015.2 hPa | 0 mm | - | 736 W/m² | - |
| 1777926490 | 17.78° C | 70% | 1015.4 hPa | 0 mm | - | 738 W/m² | - |
* Rain latest hour (hover to see other rain measurements)
** Current wind speed in m/s (hover to see current wind gust speed)